Voltar ao catálogo

DFH-3 1

AtivoComunicaçõesGEO
NORAD 23415·PAYLOAD·🇨🇳 China

Lançado Nov 29, 1994 de Xichang Satellite Launch Center

Loading…

TLE

AtualizadoSource: Space-Track

Época: Sep 14, 2026, 09:56 UTC

1 23415U 94080A   26257.41414895 -.00000176  00000-0  00000-0 0  9999
2 23415  13.6271 343.8672 0095894  24.8802  22.7476  1.00968914136577

Acompanhe DFH-3 1 em tempo real com AllMySat

Download on the App Store